Regional Weather Roundup
Issued by NWS

Home | Current Version | Previous Version | Graphics & Text | Print | Product List | Glossary On
Versions: 1 2 3 4 5 6 7 8 9 10 11 12 13 14 15 16 17 18 19 20 21 22 23 24 25 26 27 28 29 30 31 32 33 34 35 36 37 38 39 40 41 42 43 44 45 46 47 48 49 50
000
ASUS45 KBOI 271610
RWRID

IDAHO REGIONAL WEATHER ROUNDUP
NATIONAL WEATHER SERVICE BOISE ID
1000 AM MDT MON JUL 27 2015

NOTE: "FAIR" INDICATES FEW OR NO CLOUDS BELOW 12000 FEET
WITH NO SIGNIFICANT WEATHER AND/OR OBSTRUCTIONS TO VISIBILITY

IDZ012-014-271700-
SOUTHWEST IDAHO


CITY           SKY/WX    TMP DP  RH WIND       PRES   REMARKS
BOISE          SUNNY     61  41  47 NW16      30.04R
CALDWELL       SUNNY     64  37  36 NW24      30.05R
MOUNTAIN HOME  SUNNY     64  40  40 NW24G30   30.03R
$$

IDZ016-017-271700-
SOUTHCENTRAL IDAHO


CITY           SKY/WX    TMP DP  RH WIND       PRES   REMARKS
BURLEY         LGT RAIN  51  46  83 SW10      30.03F
JEROME         CLOUDY    53  43  68 SW15      30.03S
TWIN FALLS     CLOUDY    56  45  66 SW14      30.02F
$$

IDZ019>023-271700-
SOUTHEAST IDAHO


CITY           SKY/WX    TMP DP  RH WIND       PRES   REMARKS
IDAHO FALLS    PTSUNNY   66  44  45 SW25G33   29.91F
POCATELLO      CLOUDY    57  47  69 W25G38    30.03R
REXBURG        PTSUNNY   62  43  49 SW20G26   29.92R
$$

IDZ006-010-011-018-031-032-271700-
CENTRAL IDAHO MOUNTAINS


CITY           SKY/WX    TMP DP  RH WIND       PRES   REMARKS
MCCALL         PTSUNNY   53  38  56 N12       30.03R
HAILEY         PTSUNNY   54  50  87 SE7       30.01R
STANLEY          N/A     49  41  74 N3        30.04F
SALMON         CLOUDY    50  50 100 SW3       29.97F
CHALLIS        CLOUDY    53  46  77 N6        29.98F
$$

IDZ002-004-006-007-026-271700-
NORTHERN IDAHO


CITY           SKY/WX    TMP DP  RH WIND       PRES   REMARKS
LEWISTON       MOSUNNY   67  42  40 NW10      30.03R
LOWELL           N/A     63  50  62 CALM      30.04R
COEUR D`ALENE  MOSUNNY   59  43  55 SE8       30.01S
MULLAN PASS    CLOUDY    44  37  76 VRB7      30.05S
$$



USA.gov is the U.S. government's official web portal to all federal, state and local government web resources and services.